When you browse on this site, cookies collect data to enhance your experience and personalize the content and advertising you see.
Visit our Privacy Policy to learn more. By continuing to use the site, you agree to this use of cookies and data.
  • In Belgium
  • List of Countries
  • For 7 days
  • Water Temperature
  • Satellite Maps
  • Weather Map
  • Weather Widgets
  • user-avatar
    Login

    Hourly Weather Kalkan

    Today, 20 November, Tuesday

    Time Temperature Precipitation Wind Pressure Humidity
    00:00 +17°C° 0 mm 4 mps 763 mmHg 93%
    01:00 +17°C° 0 mm 3 mps 763 mmHg 93%
    02:00 +17°C° 0 mm 4 mps 763 mmHg 93%
    03:00 +15°C° 0 mm 4 mps 763 mmHg 92%
    04:00 +15°C° 0 mm 4 mps 763 mmHg 92%
    05:00 +15°C° 0 mm 4 mps 763 mmHg 92%
    06:00 +15°C° 0 mm 4 mps 764 mmHg 89%
    07:00 +17°C° 0 mm 3 mps 764 mmHg 87%
    08:00 +18°C° 0 mm 4 mps 764 mmHg 85%
    09:00 +19°C° 0 mm 4 mps 764 mmHg 80%
    10:00 +20°C° 0 mm 4 mps 764 mmHg 75%
    11:00 +22°C° 0 mm 4 mps 764 mmHg 71%
    12:00 +22°C° 0 mm 4 mps 764 mmHg 71%
    13:00 +22°C° 0 mm 3 mps 764 mmHg 71%
    14:00 +22°C° 0 mm 3 mps 763 mmHg 71%
    15:00 +21°C° 0 mm 3 mps 763 mmHg 77%
    16:00 +20°C° 0 mm 3 mps 763 mmHg 83%
    17:00 +19°C° 0 mm 2 mps 763 mmHg 90%
    18:00 +19°C° 0 mm 2 mps 763 mmHg 91%
    19:00 +19°C° 0 mm 2 mps 763 mmHg 91%
    20:00 +19°C° 0 mm 2 mps 763 mmHg 92%
    21:00 +18°C° 0 mm 2 mps 763 mmHg 91%
    22:00 +18°C° 0 mm 2 mps 763 mmHg 89%
    23:00 +17°C° 0 mm 2 mps 763 mmHg 87%

    Tomorrow, 21 November, Wednesday

    Time Temperature Precipitation Wind Pressure Humidity
    00:00 +17°C° 0 mm 2 mps 763 mmHg 85%
    01:00 +18°C° 0 mm 2 mps 762 mmHg 82%
    02:00 +18°C° 0 mm 2 mps 762 mmHg 79%
    03:00 +18°C° 0 mm 2 mps 762 mmHg 77%
    04:00 +18°C° 0 mm 2 mps 762 mmHg 74%
    05:00 +18°C° 0 mm 2 mps 761 mmHg 71%
    06:00 +18°C° 0.1 mm 2 mps 761 mmHg 73%
    07:00 +19°C° 0.1 mm 3 mps 761 mmHg 74%
    08:00 +19°C° 0.1 mm 3 mps 761 mmHg 75%
    09:00 +20°C° 0.2 mm 3 mps 761 mmHg 74%
    10:00 +20°C° 0.2 mm 3 mps 761 mmHg 73%
    11:00 +21°C° 0.2 mm 3 mps 761 mmHg 71%
    12:00 +21°C° 0.1 mm 4 mps 760 mmHg 69%
    13:00 +22°C° 0.1 mm 4 mps 759 mmHg 68%
    14:00 +22°C° 0.1 mm 4 mps 759 mmHg 66%
    15:00 +21°C° 0.3 mm 4 mps 759 mmHg 73%
    16:00 +20°C° 0.3 mm 3 mps 758 mmHg 79%
    17:00 +18°C° 0.3 mm 3 mps 758 mmHg 86%
    18:00 +18°C° 0.7 mm 3 mps 758 mmHg 87%
    19:00 +18°C° 0.7 mm 3 mps 759 mmHg 88%
    20:00 +18°C° 0.7 mm 3 mps 759 mmHg 90%
    21:00 +17°C° 0.1 mm 3 mps 759 mmHg 89%
    22:00 +17°C° 0.1 mm 3 mps 759 mmHg 89%
    23:00 +16°C° 0.1 mm 2 mps 759 mmHg 88%

    Day after tomorrow, 22 November, Thursday

    Time Temperature Precipitation Wind Pressure Humidity
    00:00 +16°C° 0 mm 3 mps 758 mmHg 84%
    01:00 +16°C° 0 mm 3 mps 758 mmHg 80%
    02:00 +14°C° 0 mm 3 mps 758 mmHg 76%
    03:00 +14°C° 0 mm 4 mps 758 mmHg 74%
    04:00 +14°C° 0 mm 4 mps 758 mmHg 72%
    05:00 +14°C° 0 mm 4 mps 758 mmHg 70%
    06:00 +14°C° 0 mm 4 mps 758 mmHg 69%
    07:00 +15°C° 0 mm 4 mps 758 mmHg 68%
    08:00 +17°C° 0 mm 3 mps 758 mmHg 67%
    09:00 +18°C° 0 mm 4 mps 758 mmHg 63%
    10:00 +19°C° 0 mm 4 mps 758 mmHg 58%
    11:00 +21°C° 0 mm 4 mps 758 mmHg 54%
    12:00 +21°C° 0 mm 4 mps 757 mmHg 55%
    13:00 +21°C° 0 mm 5 mps 757 mmHg 55%
    14:00 +21°C° 0 mm 5 mps 757 mmHg 56%
    15:00 +20°C° 0.1 mm 5 mps 757 mmHg 64%
    16:00 +19°C° 0.1 mm 5 mps 757 mmHg 73%
    17:00 +16°C° 0.1 mm 5 mps 757 mmHg 82%
    18:00 +16°C° 0.1 mm 5 mps 757 mmHg 81%
    19:00 +16°C° 0.1 mm 5 mps 757 mmHg 80%
    20:00 +16°C° 0.1 mm 5 mps 757 mmHg 79%
    21:00 +16°C° 0.1 mm 5 mps 757 mmHg 78%
    22:00 +17°C° 0.1 mm 4 mps 757 mmHg 78%
    23:00 +17°C° 0.1 mm 4 mps 758 mmHg 78%

    23 November, Friday

    Time Temperature Precipitation Wind Pressure Humidity
    00:00 +15°C° 0.1 mm 4 mps 757 mmHg 78%
    01:00 +15°C° 0.1 mm 4 mps 757 mmHg 78%
    02:00 +16°C° 0.1 mm 3 mps 757 mmHg 78%
    03:00 +16°C° 0.2 mm 3 mps 757 mmHg 79%
    04:00 +16°C° 0.2 mm 3 mps 757 mmHg 79%
    05:00 +16°C° 0.2 mm 3 mps 757 mmHg 80%
    06:00 +16°C° 0.1 mm 3 mps 757 mmHg 80%
    07:00 +15°C° 0.1 mm 4 mps 758 mmHg 80%
    08:00 +15°C° 0.1 mm 4 mps 758 mmHg 81%
    09:00 +17°C° 0 mm 3 mps 758 mmHg 74%
    10:00 +19°C° 0 mm 3 mps 758 mmHg 67%
    11:00 +20°C° 0 mm 3 mps 758 mmHg 61%
    12:00 +20°C° 0.2 mm 3 mps 758 mmHg 61%
    13:00 +20°C° 0.2 mm 3 mps 757 mmHg 60%
    14:00 +20°C° 0.2 mm 3 mps 757 mmHg 60%
    15:00 +19°C° 0.1 mm 3 mps 757 mmHg 65%
    16:00 +18°C° 0.1 mm 3 mps 758 mmHg 69%
    17:00 +18°C° 0.1 mm 3 mps 758 mmHg 74%
    18:00 +17°C° 0 mm 3 mps 758 mmHg 75%
    19:00 +16°C° 0 mm 3 mps 759 mmHg 77%
    20:00 +16°C° 0 mm 3 mps 759 mmHg 78%
    21:00 +14°C° 0 mm 3 mps 759 mmHg 78%
    22:00 +14°C° 0 mm 3 mps 760 mmHg 78%
    23:00 +14°C° 0 mm 3 mps 760 mmHg 78%

    24 November, Saturday

    Time Temperature Precipitation Wind Pressure Humidity
    00:00 +14°C° 0 mm 3 mps 760 mmHg 78%
    01:00 +13°C° 0 mm 3 mps 760 mmHg 77%
    02:00 +13°C° 0 mm 3 mps 760 mmHg 77%
    03:00 +13°C° 0 mm 3 mps 760 mmHg 77%
    04:00 +14°C° 0 mm 2 mps 760 mmHg 76%
    05:00 +14°C° 0 mm 2 mps 760 mmHg 75%
    06:00 +14°C° 0 mm 2 mps 760 mmHg 74%
    07:00 +15°C° 0 mm 2 mps 761 mmHg 72%
    08:00 +16°C° 0 mm 2 mps 761 mmHg 71%
    09:00 +17°C° 0 mm 2 mps 761 mmHg 67%
    10:00 +20°C° 0 mm 1 mps 761 mmHg 63%
    11:00 +21°C° 0 mm 1 mps 761 mmHg 59%
    12:00 +21°C° 0 mm 1 mps 761 mmHg 61%
    13:00 +21°C° 0 mm 1 mps 760 mmHg 64%
    14:00 +21°C° 0 mm 1 mps 760 mmHg 66%
    15:00 +20°C° 0 mm 1 mps 760 mmHg 72%
    16:00 +19°C° 0 mm 1 mps 760 mmHg 77%
    17:00 +18°C° 0 mm 1 mps 760 mmHg 83%
    18:00 +18°C° 0 mm 1 mps 761 mmHg 84%
    19:00 +18°C° 0 mm 1 mps 761 mmHg 86%
    20:00 +16°C° 0 mm 1 mps 762 mmHg 87%
    21:00 +16°C° 0 mm 1 mps 762 mmHg 88%
    22:00 +16°C° 0 mm 1 mps 762 mmHg 89%
    23:00 +15°C° 0 mm 1 mps 762 mmHg 90%

    25 November, Sunday

    Time Temperature Precipitation Wind Pressure Humidity
    00:00 +15°C° 0 mm 1 mps 762 mmHg 90%
    01:00 +15°C° 0 mm 1 mps 762 mmHg 90%
    02:00 +14°C° 0 mm 1 mps 762 mmHg 90%
    03:00 +14°C° 0 mm 1 mps 762 mmHg 91%
    04:00 +14°C° 0 mm 1 mps 761 mmHg 91%
    05:00 +13°C° 0 mm 1 mps 761 mmHg 92%
    06:00 +14°C° 0 mm 1 mps 762 mmHg 91%
    07:00 +15°C° 0 mm 1 mps 762 mmHg 90%
    08:00 +16°C° 0 mm 1 mps 762 mmHg 89%
    09:00 +18°C° 0 mm 1 mps 762 mmHg 83%
    10:00 +19°C° 0 mm 1 mps 762 mmHg 76%
    11:00 +20°C° 0 mm 1 mps 762 mmHg 70%
    12:00 +19°C° 0 mm 2 mps 761 mmHg 68%
    13:00 +19°C° 0 mm 2 mps 761 mmHg 66%
    14:00 +20°C° 0 mm 2 mps 761 mmHg 63%
    15:00 +19°C° 0 mm 2 mps 761 mmHg 71%
    16:00 +18°C° 0 mm 2 mps 761 mmHg 78%
    17:00 +17°C° 0 mm 2 mps 761 mmHg 86%
    18:00 +16°C° 0 mm 2 mps 761 mmHg 88%
    19:00 +15°C° 0 mm 2 mps 761 mmHg 90%
    20:00 +15°C° 0 mm 2 mps 761 mmHg 92%
    21:00 +15°C° 0 mm 2 mps 762 mmHg 92%
    22:00 +14°C° 0 mm 2 mps 762 mmHg 93%
    23:00 +14°C° 0 mm 2 mps 762 mmHg 93%
    Show more